WATER LEVELS

Guaranteed water level and forecast    Ústí nad Labem-Střekov

Guaranteed water level
130 cm
on 17.07.2018 more information
Forecast
130 cm
on 18.07.2018 07:00
Tendency
steady state
on 18.07.2018 metodika tendence
Forecast
(Source data ČHMÚ a Povodí Labe)

Ústí nad Labem

Date and time (UTC) H (cm) Q (m3/s)
18. 7. 2018 02:30 132 85
18. 7. 2018 02:00 131 83
18. 7. 2018 01:00 131 83
18. 7. 2018 00:00 130 82
17. 7. 2018 23:00 131 83
17. 7. 2018 22:00 133 86
17. 7. 2018 21:00 131 83
17. 7. 2018 20:00 138 92
17. 7. 2018 19:00 144 101
17. 7. 2018 18:00 136 90
17. 7. 2018 17:00 133 86
17. 7. 2018 16:00 133 86
17. 7. 2018 15:00 133 86
17. 7. 2018 14:00 133 86

H - vodni stav, Q - discharge
more information

Mělník

Date and time (UTC) H (cm) Q (m3/s)
18. 7. 2018 02:30 259 -
18. 7. 2018 02:00 259 -
18. 7. 2018 01:00 260 -
18. 7. 2018 00:00 261 -
17. 7. 2018 23:00 262 -
17. 7. 2018 22:00 261 -
17. 7. 2018 21:00 259 -
17. 7. 2018 20:00 258 -
17. 7. 2018 19:00 256 -
17. 7. 2018 18:00 255 -
17. 7. 2018 17:00 261 -
17. 7. 2018 16:00 267 -
17. 7. 2018 15:00 259 -
17. 7. 2018 14:00 261 -

H - vodni stav, Q - discharge
more information

Kostelec nad Labem

Date and time (UTC) H (cm) Q (m3/s)
18. 7. 2018 02:30 388 -
18. 7. 2018 02:00 389 -
18. 7. 2018 01:00 388 -
18. 7. 2018 00:00 386 7
17. 7. 2018 23:00 387 8
17. 7. 2018 22:00 388 12
17. 7. 2018 21:00 386 8
17. 7. 2018 20:00 387 5
17. 7. 2018 19:00 385 5
17. 7. 2018 18:00 388 11
17. 7. 2018 17:00 389 19
17. 7. 2018 16:00 386 13
17. 7. 2018 15:00 388 14
17. 7. 2018 14:00 386 20

H - vodni stav, Q - discharge
more information

Přelouč

Date and time (UTC) H (cm) Q (m3/s)
18. 7. 2018 02:40 40 18
18. 7. 2018 02:00 31 14
18. 7. 2018 01:00 26 13
18. 7. 2018 00:00 36 16
17. 7. 2018 23:00 39 17
17. 7. 2018 22:00 30 14
17. 7. 2018 21:00 32 15
17. 7. 2018 20:00 32 15
17. 7. 2018 19:00 33 15
17. 7. 2018 18:00 54 25
17. 7. 2018 17:00 25 12
17. 7. 2018 16:00 25 12
17. 7. 2018 15:00 46 21
17. 7. 2018 14:00 37 17

H - vodni stav, Q - discharge
more information

Praha-Chuchle

Date and time (UTC) H (cm) Q (m3/s)
18. 7. 2018 02:30 45 49
18. 7. 2018 02:00 45 49
18. 7. 2018 01:00 45 49
18. 7. 2018 00:00 45 49
17. 7. 2018 23:00 45 49
17. 7. 2018 22:00 45 49
17. 7. 2018 21:00 45 49
17. 7. 2018 20:00 44 47
17. 7. 2018 19:00 45 49
17. 7. 2018 18:00 45 49
17. 7. 2018 17:00 45 49
17. 7. 2018 16:00 45 49
17. 7. 2018 15:00 44 47
17. 7. 2018 14:00 45 49

H - vodni stav, Q - discharge
more information

České Budějovice

Date and time (UTC) H (cm) Q (m3/s)
18. 7. 2018 02:30 104 17
18. 7. 2018 02:00 103 17
18. 7. 2018 01:00 104 18
18. 7. 2018 00:00 105 19
17. 7. 2018 23:00 103 19
17. 7. 2018 22:00 105 19
17. 7. 2018 21:00 108 19
17. 7. 2018 20:00 112 20
17. 7. 2018 19:00 102 21
17. 7. 2018 18:00 104 19
17. 7. 2018 17:00 104 20
17. 7. 2018 16:00 105 19
17. 7. 2018 15:00 104 18
17. 7. 2018 14:00 104 18

H - vodni stav, Q - discharge
more information
Source data
Labe Basin Vltava Basin ČHMÚ